Location: Haliburton Scout Reserve
(45.0900°N, 78.3200°W)
Time: 13:55:18
(UTC-05:00)

Vanguard 3 - All Passes

Search period start: 30 January 2023 00:00
Search period end: 09 February 2023 00:00
Orbit: 509 x 3252 km, 33.4° (Epoch: 30 January)

Date Brightness Start Highest point End Pass type
(mag) Time Alt. Az. Time Alt. Az. Time Alt. Az.
30 Jan - 00:35:34 10° W 00:51:59 47° SSW 01:09:41 10° SE visible
30 Jan - 02:51:55 10° W 03:05:55 25° SW 03:19:01 10° S visible
30 Jan - 18:57:51 10° SSW 19:06:46 32° SE 19:20:12 10° E visible
30 Jan - 21:07:15 10° WSW 21:19:33 52° SSE 21:37:41 10° E visible
30 Jan - 23:19:11 10° W 23:34:22 53° S 23:53:08 10° ESE visible
31 Jan - 01:33:29 10° W 01:49:08 35° SSW 02:05:05 10° SSE visible
31 Jan - 03:54:38 10° WSW 04:01:57 13° SW 04:08:59 10° SSW visible
31 Jan - 17:45:30 10° S 17:51:45 19° SE 18:00:15 10° E visible
31 Jan - 19:52:47 10° SW 20:03:01 44° SSE 20:19:00 10° E visible
31 Jan - 22:03:32 10° WSW 22:16:53 55° S 22:35:37 10° ESE visible
01 Feb - 00:16:23 10° W 00:31:51 44° SSW 00:49:36 10° SE visible
01 Feb - 02:32:43 10° W 02:45:45 23° SW 02:58:36 10° S visible
01 Feb - 18:39:07 10° SSW 18:47:18 32° SSE 18:59:57 10° E visible
01 Feb - 20:48:31 10° WSW 20:59:51 52° S 21:17:22 10° ESE visible
01 Feb - 23:00:13 10° W 23:14:22 50° SSW 23:32:55 10° SE visible
02 Feb - 01:14:17 10° W 01:28:57 33° SSW 01:44:48 10° SSE visible
02 Feb - 03:37:13 10° WSW 03:41:54 11° SW 03:46:31 10° SW visible
02 Feb - 17:26:39 10° S 17:32:23 19° SE 17:40:17 10° E daylight
02 Feb - 19:34:08 10° SW 19:43:30 44° SSE 19:58:39 10° E visible
02 Feb - 21:44:45 10° WSW 21:57:05 53° S 22:15:16 10° ESE visible
02 Feb - 23:57:21 10° W 00:11:46 41° SSW 00:29:17 10° SE visible
03 Feb - 02:13:48 10° W 02:25:37 21° SW 02:37:47 10° S visible
03 Feb - 18:20:29 10° SSW 18:27:57 32° SSE 18:39:43 10° E visible
03 Feb - 20:29:53 10° WSW 20:40:17 51° S 20:56:57 10° ESE visible
03 Feb - 22:41:21 10° W 22:54:28 47° SSW 23:12:31 10° SE visible
04 Feb - 00:55:17 10° W 01:08:50 30° SSW 01:24:11 10° SSE visible
04 Feb - 17:07:56 10° S 17:13:08 19° SE 17:20:22 10° E daylight
04 Feb - 19:15:34 10° SW 19:24:08 43° SSE 19:38:17 10° E visible
04 Feb - 21:26:03 10° WSW 21:37:24 50° S 21:54:48 10° ESE visible
04 Feb - 23:38:28 10° W 23:51:45 38° SSW 00:08:43 10° SE visible
05 Feb - 01:55:15 10° WSW 02:05:32 18° SW 02:16:28 10° S night (unlit)
05 Feb - 18:01:55 10° SSW 18:08:43 32° SSE 18:19:31 10° E visible
05 Feb - 20:11:18 10° WSW 20:20:49 49° S 20:36:29 10° ESE visible
05 Feb - 22:22:37 10° W 22:34:39 44° SSW 22:51:56 10° SE visible
06 Feb - 00:36:30 10° W 00:48:48 26° SW 01:03:17 10° SSE visible
06 Feb - 16:49:17 10° S 16:53:59 19° SE 17:00:29 10° ESE daylight
06 Feb - 18:57:05 10° SW 19:04:51 42° SSE 19:17:55 10° E visible
06 Feb - 21:07:27 10° WSW 21:17:49 47° S 21:34:13 10° ESE visible
06 Feb - 23:19:42 10° W 23:31:51 34° SSW 23:47:55 10° SSE visible
07 Feb - 01:37:13 10° WSW 01:45:32 15° SW 01:54:30 10° SSW night (unlit)
07 Feb - 17:43:26 10° SSW 17:49:35 31° SSE 17:59:22 10° E visible
07 Feb - 19:52:48 10° WSW 20:01:27 47° S 20:15:58 10° ESE visible
07 Feb - 22:03:58 10° W 22:14:57 40° SSW 22:31:11 10° SE visible
08 Feb - 00:17:58 10° WSW 00:28:51 23° SW 00:42:00 10° S visible
08 Feb - 16:30:42 10° S 16:34:55 18° SE 16:40:42 10° ESE daylight
08 Feb - 18:38:38 10° SW 18:45:41 41° SSE 18:57:35 10° ESE visible
08 Feb - 20:48:55 10° WSW 20:58:20 44° S 21:13:33 10° SE visible
08 Feb - 23:01:08 10° W 23:12:03 30° SSW 23:26:51 10° SSE visible
